[[{"header":{"parameterUnit":"m.s-1","parameterCategory":1,"la1":30.2991,"la2":30.254,"lo1":-89.0895,"lo2":-89.0444,"dy":0.0017,"dx":0.0017,"nx":28,"ny":28,"refTime":"2024-09-26T09:00:00:Z","depth":0,"parameterNumber":2,"parameterNumberName":"U-component_of_WINDS"},"data":[0,0,0,0,0,0,0,0,0,0,0,0,0,0,0,0,0,0,0,0,0,0,0,0,0,0,0,0,0,0,0,0,0,0,0,0,0,0,0,0,0,0,0,0,0,0,0,0,0,0,0,0,0,0,0,0,0,0,6.0044,6.0046,0,6.0227,6.0229,6.0231,6.0172,6.0168,6.0165,6.0161,6.0347,6.0356,6.0364,0,0,0,0,0,0,0,0,0,0,0,0,0,5.9643,5.9651,6.0044,6.0046,6.0048,6.0226,6.0229,6.0231,6.0173,6.0168,6.0164,6.0159,6.0344,6.0355,6.0365,0,0,0,0,0,0,0,0,0,0,0,0,0,5.9821,5.9653,6.0043,6.0041,6.0042,6.0226,6.0229,6.0232,6.0174,6.0168,6.0162,6.0157,6.0341,6.0354,6.0366,6.0563,0,0,6.0406,6.0411,0,0,0,0,0,0,0,0,5.9811,5.9835,6.0039,6.0041,6.0043,6.0171,6.0156,6.0343,6.0176,6.0124,6.0161,6.0154,6.0293,6.031,6.0357,6.0572,6.058,6.0407,6.0415,6.042,6.0424,0,0,0,0,0,0,0,5.9799,5.9827,6.0116,6.0042,6.0045,6.003,6.0049,6.0191,6.0239,6.0128,6.0124,6.0147,6.0293,6.0345,6.0361,6.0583,6.0407,6.0418,6.0426,6.0431,6.0969,6.0975,0,0,0,0,0,0,5.9785,5.9817,6.011,6.0121,5.991,6.0042,6.0063,6.0136,6.0237,6.0247,6.0152,6.0143,6.0325,6.0346,6.0367,6.0604,6.042,6.0432,6.044,6.0962,6.097,6.0977,0,0,0,0,0,0,5.9777,5.9812,6.0103,5.9969,6.0005,6.0055,6.0137,6.0142,6.0193,6.0255,6.0263,6.0195,6.0322,6.0349,6.0515,6.061,6.0438,6.045,6.0954,6.0965,6.0974,6.108,0,0,0,0,0,0,5.9765,5.9809,5.9884,5.9971,6.0012,6.0248,6.0143,6.015,6.0216,6.0207,6.0298,6.0308,6.0319,6.0496,6.0528,6.0624,6.046,6.0946,6.0959,6.097,6.1068,6.1092,6.1113,0,0,0,0,0,5.9751,5.9907,5.9888,5.9924,6.0107,6.0254,6.0277,6.0287,6.0224,6.03,6.034,6.0305,6.0595,6.0514,6.0549,6.0651,6.094,6.0955,6.097,6.1058,6.1087,6.1112,0,0,0,0,0,0,5.983,5.9918,5.9899,6.0087,6.0163,6.0243,6.034,6.0318,6.0414,6.0401,6.0409,6.043,6.0601,6.0642,6.0551,6.0847,6.0758,6.078,6.0813,6.0841,6.0863,6.0849,6.0471,0,0,0,0,0,5.9869,5.9981,6.0052,6.0211,6.025,6.0289,6.0353,6.0354,6.0433,6.0465,6.0517,6.0595,6.0704,6.0775,6.0878,6.1074,6.1093,6.1162,6.1184,6.1202,6.1221,6.1327,6.1359,6.1025,6.1025,6.1025,0,0,5.9951,6.0013,6.0083,6.0229,6.0288,6.0403,6.0316,6.0442,6.0527,6.0484,6.0644,6.0685,6.0773,6.0955,6.1037,6.0995,6.1317,6.1221,6.1234,6.1244,6.1346,6.1377,6.1405,6.1035,6.1034,6.1032,0,0,6.016,6.0218,6.0357,6.0419,6.051,6.0534,6.0568,6.0652,6.0678,6.0839,6.0809,6.091,6.1097,6.1161,6.1218,6.1451,6.1423,6.1485,6.1601,6.1704,6.1731,6.1754,6.1837,6.1866,6.1504,6.1504,6.1504,0,6.025,6.0423,6.0431,6.056,6.0625,6.0592,6.0732,6.0791,6.0912,6.0957,6.0907,6.1141,6.1198,6.1394,6.1451,6.1499,6.1537,6.1474,6.1726,6.175,6.1772,6.1851,6.1882,6.1511,6.151,6.151,6.1509,0,6.053,6.065,6.0751,6.0869,6.0945,6.1079,6.1107,6.1183,6.1178,6.1208,6.1372,6.1439,6.1556,6.1602,6.1599,6.1799,6.1769,6.1723,6.1634,6.181,6.1884,6.1915,6.1521,6.1518,6.1516,6.1515,0,0,6.0792,6.0913,6.095,6.1002,6.1101,6.1194,6.1327,6.1441,6.1506,6.159,6.1701,6.186,6.1818,6.1883,6.1886,6.1978,6.2158,6.192,6.1922,6.1961,6.2382,6.2415,6.245,6.214,6.2146,6.215,6.2374,0,6.1008,6.1241,6.1253,6.1465,6.1576,6.1546,6.1662,6.1735,6.1766,6.1865,6.19,6.2012,6.1949,6.1988,6.2077,6.2117,6.2242,6.2101,6.2243,6.2247,6.2221,6.2489,6.2524,6.2732,6.2403,6.2408,6.2412,0,6.1292,6.1385,6.1608,6.1691,6.1738,6.1841,6.1947,6.2042,6.2124,6.214,6.2213,6.2203,6.2339,6.2246,6.2432,6.2336,6.2395,6.2424,6.2432,6.2445,6.2339,6.2508,6.2799,6.283,6.2458,6.2454,6.2451,0,6.146,6.1641,6.1798,6.1844,6.1945,6.2018,6.2064,6.214,6.2208,6.23,6.2344,6.2451,6.251,6.2592,6.2612,6.2542,6.2798,6.2707,6.2815,6.2815,6.287,6.2866,6.3173,6.2909,6.2909,6.2908,6.2908,0,6.17,6.1837,6.1875,6.1971,6.2124,6.2137,6.2288,6.2328,6.2396,6.25,6.2481,6.2578,6.2599,6.27,6.2716,6.2868,6.2895,6.2912,6.2914,6.2913,6.2911,6.2951,6.2936,6.2917,6.2915,6.2913,6.2912,0,6.1913,6.1944,6.2113,6.2195,6.2218,6.2328,6.2397,6.249,6.2519,6.265,6.2682,6.2728,6.2847,6.2875,6.3016,6.3027,6.3206,6.3195,6.3179,6.3178,6.3284,6.3274,6.3627,6.3674,6.3381,6.3383,6.3386,0,6.2064,6.2169,6.2262,6.233,6.2379,6.2489,6.2558,6.2574,6.2647,6.2749,6.2829,6.2945,6.3039,6.323,6.3277,6.3385,6.3375,6.3492,6.3391,6.3387,6.3376,6.3369,6.338,6.3511,6.3514,6.3516,6.3518,0,6.2328,6.2338,6.2438,6.2545,6.2628,6.2713,6.2794,6.2851,6.2878,6.2961,6.3082,6.3155,6.3299,6.3415,6.3524,6.357,6.3549,6.355,6.3581,6.358,6.3566,6.3574,6.323,6.3541,6.3539,6.3537,6.3536,6.3535,6.2514,6.2606,6.2686,6.2798,6.2861,6.2937,6.3028,6.3069,6.317,6.3289,6.3292,6.3425,6.3504,6.3648,6.37,6.3804,6.3768,6.3812,6.3823,6.3834,6.3843,6.355,6.3824,6.3823,6.3822,6.3822,6.3821,0,6.2776,6.2826,6.293,6.3043,6.3132,6.3105,6.3193,6.3269,6.3386,6.3462,6.3555,6.3694,6.3806,6.3862,6.3973,6.4045,6.4038,6.4074,6.4068,6.4079,6.3869,6.3831,6.4077,6.4077,6.4077,6.4077,6.4077,6.4077,6.2923,6.3077,6.3097,6.3281,6.333,6.3459,6.3512,6.3582,6.3642,6.3799,6.3892,6.3928,6.3996,6.4112,6.4213,6.4227,6.4268,6.4308,6.4317,6.412,6.4094,6.4069,6.4033,6.4317,6.4318,6.4518,6.452,6.4521]},{"header":{"parameterUnit":"m.s-1","parameterCategory":1,"la1":30.2991,"la2":30.254,"lo1":-89.0895,"lo2":-89.0444,"dy":0.0017,"dx":0.0017,"nx":28,"ny":28,"refTime":"2024-09-26T09:00:00:Z","depth":0,"parameterNumber":3,"parameterNumberName":"V-component_of_WINDS"},"data":[0,0,0,0,0,0,0,0,0,0,0,0,0,0,0,0,0,0,0,0,0,0,0,0,0,0,0,0,0,0,0,0,0,0,0,0,0,0,0,0,0,0,0,0,0,0,0,0,0,0,0,0,0,0,0,0,0,0,-2.7453,-2.7454,0,-2.7578,-2.7579,-2.7581,-2.7567,-2.7565,-2.7563,-2.7561,-2.7691,-2.7696,-2.7701,0,0,0,0,0,0,0,0,0,0,0,0,0,-2.7205,-2.7209,-2.7453,-2.7454,-2.7456,-2.7577,-2.7579,-2.7581,-2.7567,-2.7565,-2.7563,-2.756,-2.7689,-2.7695,-2.7702,0,0,0,0,0,0,0,0,0,0,0,0,0,-2.7319,-2.7211,-2.7452,-2.7464,-2.7466,-2.7577,-2.7579,-2.7581,-2.7568,-2.7565,-2.7562,-2.7559,-2.7687,-2.7695,-2.7702,-2.7811,0,0,-2.7727,-2.773,0,0,0,0,0,0,0,0,-2.7313,-2.7328,-2.7461,-2.7463,-2.7466,-2.7554,-2.7539,-2.7658,-2.7569,-2.7529,-2.7561,-2.7558,-2.7648,-2.7659,-2.7689,-2.7817,-2.7822,-2.7727,-2.7732,-2.7736,-2.7738,0,0,0,0,0,0,0,-2.7305,-2.7323,-2.7502,-2.7463,-2.7466,-2.7463,-2.7476,-2.7562,-2.7604,-2.7533,-2.7532,-2.7547,-2.7649,-2.7681,-2.7692,-2.7824,-2.7727,-2.7734,-2.7739,-2.7742,-2.8048,-2.8052,0,0,0,0,0,0,-2.7294,-2.7316,-2.7498,-2.7506,-2.738,-2.747,-2.7485,-2.7529,-2.7603,-2.7611,-2.7549,-2.7546,-2.7669,-2.7682,-2.7696,-2.7828,-2.7735,-2.7743,-2.7747,-2.8045,-2.8049,-2.8053,0,0,0,0,0,0,-2.7289,-2.731,-2.7493,-2.7411,-2.7434,-2.7478,-2.7527,-2.7533,-2.7565,-2.7615,-2.7623,-2.7574,-2.7667,-2.7685,-2.7782,-2.7833,-2.7746,-2.7754,-2.8041,-2.8046,-2.8051,-2.8093,0,0,0,0,0,0,-2.7282,-2.7308,-2.735,-2.7412,-2.7439,-2.7577,-2.753,-2.7537,-2.7579,-2.7575,-2.7641,-2.7649,-2.7666,-2.7771,-2.779,-2.7842,-2.776,-2.8037,-2.8043,-2.8049,-2.8088,-2.8099,-2.8109,0,0,0,0,0,-2.7273,-2.7357,-2.7352,-2.7374,-2.7491,-2.758,-2.7595,-2.7613,-2.7583,-2.7625,-2.7657,-2.7647,-2.7824,-2.7781,-2.7803,-2.7858,-2.8034,-2.8042,-2.8049,-2.8083,-2.8097,-2.8109,0,0,0,0,0,0,-2.7299,-2.7365,-2.736,-2.7467,-2.7518,-2.7577,-2.7631,-2.7627,-2.7688,-2.7682,-2.7702,-2.7717,-2.7816,-2.7846,-2.7797,-2.7967,-2.7925,-2.7937,-2.7943,-2.7957,-2.7967,-2.7958,-2.7766,0,0,0,0,0,-2.7318,-2.7384,-2.7438,-2.7527,-2.7552,-2.7587,-2.7627,-2.7636,-2.769,-2.7712,-2.7751,-2.7804,-2.7872,-2.7916,-2.7981,-2.8092,-2.8107,-2.8141,-2.8151,-2.816,-2.817,-2.8232,-2.8248,-2.8078,-2.8078,-2.8078,0,0,-2.7356,-2.74,-2.7441,-2.7533,-2.7574,-2.7643,-2.7606,-2.768,-2.7732,-2.7723,-2.7818,-2.7848,-2.7909,-2.8014,-2.8062,-2.8043,-2.8221,-2.817,-2.8176,-2.8182,-2.8242,-2.8258,-2.8272,-2.8083,-2.8082,-2.8081,0,0,-2.7461,-2.7501,-2.758,-2.7621,-2.7683,-2.7706,-2.7724,-2.7785,-2.7805,-2.79,-2.7895,-2.7957,-2.8073,-2.8117,-2.8154,-2.8277,-2.827,-2.8297,-2.8354,-2.8414,-2.8427,-2.8439,-2.8484,-2.8499,-2.8308,-2.8308,-2.8308,0,-2.7502,-2.7604,-2.7621,-2.7696,-2.7737,-2.7732,-2.7812,-2.7852,-2.7932,-2.7961,-2.7938,-2.8084,-2.8124,-2.8239,-2.8269,-2.83,-2.8322,-2.829,-2.8424,-2.8436,-2.8447,-2.849,-2.8507,-2.8311,-2.831,-2.831,-2.831,0,-2.7651,-2.7723,-2.7779,-2.7856,-2.7903,-2.7981,-2.8009,-2.8056,-2.8061,-2.8086,-2.8184,-2.8232,-2.8307,-2.8335,-2.8341,-2.8452,-2.8438,-2.8419,-2.8377,-2.8466,-2.8507,-2.8523,-2.8315,-2.8314,-2.8313,-2.8312,0,0,-2.7777,-2.7862,-2.7882,-2.7918,-2.7986,-2.8042,-2.8119,-2.8192,-2.8232,-2.8287,-2.8353,-2.8452,-2.8435,-2.8477,-2.8488,-2.8541,-2.8636,-2.8516,-2.8517,-2.8537,-2.8762,-2.8776,-2.8795,-2.8631,-2.8634,-2.8637,-2.8757,0,-2.789,-2.8026,-2.8043,-2.8164,-2.8231,-2.8228,-2.8295,-2.8345,-2.8371,-2.8432,-2.846,-2.853,-2.8502,-2.8528,-2.858,-2.8613,-2.8681,-2.8604,-2.8694,-2.8697,-2.8679,-2.8816,-2.8831,-2.8942,-2.8773,-2.8776,-2.8777,0,-2.8039,-2.8098,-2.8226,-2.8285,-2.8314,-2.8375,-2.8443,-2.8501,-2.8558,-2.8573,-2.862,-2.8625,-2.8706,-2.8661,-2.8773,-2.872,-2.8758,-2.878,-2.8785,-2.8794,-2.8743,-2.8829,-2.8977,-2.8994,-2.8802,-2.88,-2.8799,0,-2.8119,-2.8231,-2.8322,-2.8352,-2.8423,-2.8466,-2.8498,-2.8551,-2.8594,-2.8654,-2.8682,-2.8751,-2.8789,-2.8843,-2.8866,-2.8831,-2.8978,-2.8934,-2.8993,-2.8993,-2.9025,-2.9023,-2.9181,-2.9048,-2.9048,-2.9047,-2.9047,0,-2.8243,-2.8322,-2.8359,-2.8415,-2.8503,-2.8522,-2.8609,-2.864,-2.8687,-2.875,-2.8751,-2.881,-2.8836,-2.89,-2.8919,-2.9009,-2.9026,-2.9042,-2.9046,-2.9042,-2.904,-2.9067,-2.9061,-2.9052,-2.9051,-2.905,-2.9049,0,-2.8348,-2.8375,-2.8475,-2.8534,-2.855,-2.8613,-2.8664,-2.8719,-2.8744,-2.8823,-2.8843,-2.8883,-2.8958,-2.8986,-2.9077,-2.909,-2.9195,-2.9193,-2.9176,-2.9177,-2.9235,-2.923,-2.9418,-2.9444,-2.9292,-2.9294,-2.9295,0,-2.8425,-2.8486,-2.8551,-2.8593,-2.8626,-2.8693,-2.8737,-2.8758,-2.8804,-2.8873,-2.892,-2.8994,-2.9054,-2.9174,-2.9212,-2.9282,-2.9282,-2.9343,-2.9292,-2.9287,-2.9284,-2.928,-2.9287,-2.9352,-2.9354,-2.9355,-2.9356,0,-2.8561,-2.8572,-2.8634,-2.8702,-2.8754,-2.8808,-2.8861,-2.8896,-2.8925,-2.8977,-2.9053,-2.91,-2.9193,-2.9267,-2.9339,-2.9372,-2.937,-2.9372,-2.9389,-2.9386,-2.9375,-2.9383,-2.9202,-2.9367,-2.9366,-2.9365,-2.9365,-2.9364,-2.8655,-2.8709,-2.8763,-2.8833,-2.8875,-2.8925,-2.8979,-2.9011,-2.9075,-2.9152,-2.916,-2.9242,-2.9298,-2.9394,-2.9431,-2.9496,-2.948,-2.9505,-2.9512,-2.9518,-2.9523,-2.9363,-2.9509,-2.9509,-2.9509,-2.9509,-2.9508,0,-2.8792,-2.8826,-2.889,-2.8964,-2.9019,-2.9011,-2.9069,-2.9116,-2.9188,-2.924,-2.9299,-2.9387,-2.9459,-2.9503,-2.9575,-2.9619,-2.962,-2.9637,-2.9635,-2.9643,-2.9533,-2.951,-2.9636,-2.9636,-2.9636,-2.9636,-2.9636,-2.9636,-2.8869,-2.896,-2.8977,-2.9089,-2.9123,-2.9203,-2.9237,-2.9283,-2.9324,-2.9422,-2.9482,-2.9509,-2.9558,-2.9634,-2.97,-2.9711,-2.9738,-2.9758,-2.9767,-2.9664,-2.9651,-2.9638,-2.9617,-2.9763,-2.9763,-2.9873,-2.9874,-2.9874]}]]